MERIDIAN 8 (44453 NORAD) Tracking and Keplerian Element Data

This shows tracking and keplerian element data for the satellite.

Feedback or suggestion? Click here.




ElementValue
Catalog44453
NameMERIDIAN 8
Epoch Orbit58
Epoch Day240.61898949
Epoch Year2019
RAAN342.5274
Inclination62.7978
Eccentricity0.7225382
Argument of Perigee270.0828
Mean Anonmoly224.4407
Mean Motion2.00624456
Decay Rate3.2E-07
L11 44453U 19046A 19240.61898949 .00000032 00000-0 00000+0 0 9994
L22 44453 62.7978 342.5274 7225382 270.0828 224.4407 2.00624456 589

Live tracking and technical data element details for MERIDIAN 8 (NORAD 44453). MERIDIAN 8 can be tracked NOW for your location showing map with azimuth and elevation plus other details from your city location.

Track the satellite on the map from your city or location and see movement details for azimuth, elevation, latitude, longitude, range, height, and movement on the map or in text.







IsCatalogInMostPopularTable: catalog: 44453, numindb: 17
Update: records affected: 1



GetName: 44453 MERIDIAN 8

Hit Count: updated at: Thu, 05 Dec 2019 16:44:15 GMT